Weather in Gnilusha

Russia / Lipetsk Oblast     52°19′14″N   39°05′51″E
temp.,
°C
wind,
m/s
gust,
m/s
humid.,
%
clouds,
%
prec.,
mm/h
press.,
hPa
HPBL,
m
14 may, fri
fri1400:00+13ene2290100 0.0 101629
03:00+13e2288100 0.0 101620
06:00+13ese359288 0.9 1016115
09:00+18ese5875100 1.1 1015463
12:00+23se7958100 0.0 10141357
15:00+22sse81364100 0.4 1013732
18:00+19se51169100 0.0 1012202
21:00+20se7167380 0.0 1011432
15 may, sat
sat1500:00+17sse4108969 0.0 1011220
03:00+16sse3794100 0.0 1011138
06:00+16s2493100 0.0 1011131
09:00+20s5679100 0.4 1012404
12:00+22sw676199 1.4 10121108
15:00+23ssw6852100 1.4 10121820
18:00+21sw48654 0.0 1012386
21:00+16sw35791 0.0 101359
16 may, sun
sun1600:00+14sw228356 0.0 101419
03:00+13w11856 0.0 101410
06:00+15se1283100 0.0 101531
09:00+20sse23661 0.0 1015469
12:00+23s33510 0.0 10141445
15:00+24sw23435 0.0 10141825
18:00+24nne2258100 0.0 101340
21:00+18ene337669 0.1 101328
17 may, mon
mon1700:00+16ene3587100 0.0 101369
03:00+15ene34855 0.0 101356
06:00+15e498489 0.0 1011189
09:00+22se466084 0.0 1011330
12:00+26se684491 0.0 1011935
15:00+27se6104868 0.0 10101881
18:00+24se712605 0.0 1009539
21:00+19ese4137695 0.0 1009301
18 may, tue
tue1800:00+17ese411749 0.0 1008209
03:00+15ese4875100 0.0 1008132
06:00+15se49777 0.0 1008200
09:00+21sse696699 0.0 1008523
12:00+24s6865100 0.0 10091189
15:00+22ssw5875100 3.8 1009859
18:00+20s367974 1.1 1010484
21:00+17ssw3493100 2.8 101081